This is the latest recevied weather packets stored in our database for station/object K1KOF. If no packets are shown the sender has not sent any weather packets the latest 10 day(s).
| Time | Temp. | Humidity | Pressure | Rain* | Wind** | Luminosity | Snow |
|---|---|---|---|---|---|---|---|
| 1778114544 | 26.67° C | 59% | 1021.4 hPa | 0 mm | - | 0 W/m² | - |
| 1778114239 | 26.67° C | 60% | 1021.5 hPa | 0 mm | - | 0 W/m² | - |
| 1778113935 | 26.67° C | 59% | 1021.2 hPa | 0 mm | - | 0 W/m² | - |
| 1778113631 | 26.67° C | 58% | 1021.5 hPa | 0 mm | - | 0 W/m² | - |
| 1778113327 | 27.22° C | 58% | 1021.3 hPa | 0 mm | - | 0 W/m² | - |
| 1778113024 | 27.22° C | 58% | 1021.5 hPa | 0 mm | - | 0 W/m² | - |
| 1778112721 | 27.22° C | 59% | 1021.6 hPa | 0 mm | - | 0 W/m² | - |
| 1778112417 | 27.22° C | 58% | 1021.8 hPa | 0 mm | - | 0 W/m² | - |
| 1778112113 | 27.22° C | 58% | 1021.9 hPa | 0 mm | - | 0 W/m² | - |
| 1778111810 | 27.22° C | 58% | 1021.6 hPa | 0 mm | - | 0 W/m² | - |
| 1778111506 | 27.22° C | 58% | 1021.4 hPa | 0 mm | - | 1 W/m² | - |
| 1778111203 | 27.22° C | 58% | 1021.4 hPa | 0 mm | - | 7 W/m² | - |
| 1778110900 | 27.22° C | 58% | 1021.5 hPa | 0 mm | - | 11 W/m² | - |
| 1778110597 | 27.22° C | 59% | 1021.4 hPa | 0 mm | - | 17 W/m² | - |
| 1778110294 | 27.22° C | 60% | 1021.4 hPa | 0 mm | - | 23 W/m² | - |
| 1778109990 | 27.78° C | 58% | 1021.6 hPa | 0 mm | - | 21 W/m² | - |
| 1778109686 | 27.78° C | 59% | 1021.5 hPa | 0 mm | - | 15 W/m² | - |
| 1778109383 | 27.78° C | 57% | 1021.7 hPa | 0 mm | - | 23 W/m² | - |
| 1778109081 | 27.78° C | 57% | 1021.7 hPa | 0 mm | - | 35 W/m² | - |
| 1778108778 | 27.78° C | 57% | 1021.7 hPa | 0 mm | - | 44 W/m² | - |
| 1778108475 | 28.33° C | 57% | 1021.7 hPa | 0 mm | - | 42 W/m² | - |
| 1778108171 | 28.33° C | 56% | 1021.6 hPa | 0 mm | - | 54 W/m² | - |
| 1778107868 | 28.33° C | 55% | 1021.7 hPa | 0 mm | - | 65 W/m² | - |
| 1778107565 | 28.89° C | 56% | 1021.5 hPa | 0 mm | - | 79 W/m² | - |
| 1778107261 | 28.89° C | 55% | 1021.4 hPa | 0 mm | - | 124 W/m² | - |
* Rain latest hour (hover to see other rain measurements)
** Current wind speed in m/s (hover to see current wind gust speed)